Location: La Brionne
(46.1728°N, 1.7849°E)
Time: 12:23:02
(UTC+00:00)

Cosmos 2219 Rocket - Pass Details

Date: 25 October 2021
Orbit: 826 x 848 km, 71.0° (Epoch: 01 December)

Event Time Altitude Azimuth Distance (km) Brightness Sun altitude
Exits shadow 04:43:44 - 333° (NNW) 3,367 5.1 -17.9°
Reaches altitude 10° 04:46:06 10° 334° (NNW) 2,467 4.4 -17.5°
Maximum altitude 04:51:47 87° 64° (ENE) 852 2.2 -16.5°
Drops below altitude 10° 04:57:27 10° 154° (SSE) 2,462 5.0 -15.6°
Sets 04:59:53 0° 155° (SSE) 3,395 5.7 -15.1°
